OpenBCM V1.13 (Linux)

Packet Radio Mailbox

DB0FHN

[JN59NK Nuernberg]

 Login: GUEST





  
I0OJJ  > KEPS     24.01.26 02:33l 320 Lines 15318 Bytes #999 (0) @ AMSAT
BID : ORB26024.1
Read: OE5RCO DJ6UX GUEST
Subj: 2Line Orbital Elements 26024.AMSAT
Path: DB0FHN<DB0RKB<DK0WUE<PD0LPM<PI8ZTM<CX2SA<EA2RCF<I0OJJ
Sent: 260124/0021z @:I0OJJ.ITA.EU [Rome] obcm1.13-37-gc689
From: I0OJJ @ I0OJJ.ITA.EU (Gustavo)
To:   KEPS @ AMSAT
X-Info: This message was generated automatically


QST de W1STR

AMSAT Orbital Elements for Amateur Satellites in TLE Format
From Orbital Analysis Office
New England Sci-Tech STEM Education Center
Natick MA January 24, 2026
To all radio amateurs


These element sets describe the orbits of various satellites 
in use by the amateur radio community. For details see:
www.amsat.org/keplerian-elements-formats/

A daily update of element sets is available at:
www.amsat.org/tle/daily-bulletin.txt
or without bulletin text:
www.amsat.org/tle/dailytle.txt


AO-07
1 07530U 74089B   26023.49310550 -.00000038  00000-0  52255-4 0  9998
2 07530 101.9969  35.1997 0012349  48.3042 119.6332 12.53695271342382
UO-11
1 14781U 84021B   26023.62488335  .00002357  00000-0  24814-3 0  9997
2 14781  97.7875 351.0211 0006458 310.9063  49.1595 14.90317398235596
AO-27
1 22825U 93061C   26023.18541761  .00000291  00000-0  12793-3 0  9991
2 22825  98.7079  90.5386 0008800 159.3274 200.8266 14.30895440686269
FO-29
1 24278U 96046B   26023.62138461  .00000032  00000-0  64725-4 0  9995
2 24278  98.5434 252.1251 0350868 111.4421 252.4521 13.53265449453612
GO-32
1 25397U 98043D   26023.50265875  .00000191  00000-0  10266-3 0  9990
2 25397  98.9966  12.6885 0000278 292.0044  68.1104 14.24391448430730
ISS
1 25544U 98067A   26023.39975333  .00015276  00000-0  27894-3 0  9999
2 25544  51.6326 296.2323 0007748  49.8407 310.3259 15.49583551549311
NO-44
1 26931U 01043C   26023.36658240  .00000378  00000-0  17183-3 0  9997
2 26931  67.0497 258.8278 0007150 267.3024  92.7259 14.31884222269717
SO-50
1 27607U 02058C   26023.56172721  .00002411  00000-0  30320-3 0  9990
2 27607  64.5515 216.3177 0073824 288.8149  70.4959 14.82586464243013
CO-55
1 27844U 03031E   26023.46174671  .00000684  00000-0  31556-3 0  9992
2 27844  98.6770  33.8283 0008619 243.1128 116.9170 14.24222853171070
CO-57
1 27848U 03031J   26023.44860900  .00000573  00000-0  27110-3 0  9999
2 27848  98.6799  33.6441 0008427 263.4219  96.6000 14.23524364170786
RS-22
1 27939U 03042A   26023.62661807 -.00000067  00000-0 -20874-5 0  9999
2 27939  98.3389 203.9492 0011493  13.1274  75.6395 14.73106941194260
CO-58
1 28895U 05043F   26023.38270120  .00003289  00000-0  53049-3 0  9996
2 28895  98.2757 176.1791 0013360 307.5615  52.4377 14.72095221 80441
CO-65
1 32785U 08021C   26023.59316307  .00009405  00000-0  62011-3 0  9994
2 32785  97.8147   2.3062 0010073 148.9371 211.2454 15.07664903963390
CO-66
1 32791U 08021J   26023.47457012  .00027698  00000-0  10459-2 0  9999
2 32791  97.7483  15.1156 0005578  93.9648 266.2228 15.26967514965166
RS-30
1 32953U 08025A   26023.55939677  .00000094  00000-0  60273-3 0  9995
2 32953  82.5011  85.4123 0018276 266.0776  93.8215 12.43174194801724
SRMSAT
1 37841U 11058D   26023.65924458  .00000540  00000-0  14966-3 0  9992
2 37841  19.9702 214.2504 0011799  53.9735  14.2490 14.11528764737376
ZACUBE-1
1 39417U 13066B   26023.63646069  .00011532  00000-0  92241-3 0  9996
2 39417  97.8121 345.2634 0042317  14.1727 346.0672 14.99652847659058
Delfi-N3xt
1 39428U 13066N   26023.51634682  .00015971  00000-0  14626-2 0  9994
2 39428  97.8351 304.1956 0077275 328.9441  30.7221 14.92737850653025
GOMX-1
1 39430U 13066Q   26023.59623164  .00003722  00000-0  56762-3 0  9997
2 39430  97.6575 233.1106 0129714 181.2223 178.8685 14.68860769648689
LO-74
1 39440U 13066AA  26023.38182006  .00006150  00000-0  58555-3 0  9990
2 39440  97.8758 332.0249 0059931 145.9109 214.5982 14.92405920655389
AO-73
1 39444U 13066AE  26023.43668208  .00015357  00000-0  10154-2 0  9994
2 39444  97.8126 352.2648 0037577 339.2517  20.7182 15.06885609657846
DTUSAT-2
1 40030U 14033W   26023.62347111  .00013292  00000-0  76456-3 0  9994
2 40030  98.0806  12.4826 0008927  21.1176 339.0420 15.12572900630818
EO-80
1 40032U 14033Y   26023.49896873  .00013737  00000-0  78770-3 0  9990
2 40032  98.0688  11.6875 0006478 321.0845  38.9917 15.12690432630779
LILACSAT-2
1 40908U 15049K   26023.62856931  .00023198  00000-0  47212-3 0  9995
2 40908  97.4871  55.3336 0009327  63.9095 296.3113 15.46236217573374
Horyu-4
1 41340U 16012D   26023.33293062  .00089103  00000-0  12451-2 0  9999
2 41340  30.9939  23.4204 0004549 281.0594  78.9545 15.55447494548028
Lapan A3
1 41603U 16040E   26023.63500683  .00005576  00000-0  18285-3 0  9999
2 41603  97.1452  24.6822 0010895 163.5606 196.5991 15.31951832532679
CAS-2T
1 41847U 16066G   26023.19287190  .00002741  00000-0  39485-3 0  9999
2 41847  98.3966 100.5250 0342818 209.1775 148.9879 14.44278508483865
TechnoSat
1 42829U 17042E   26023.45469512  .00006583  00000-0  48138-3 0  9997
2 42829  97.4087 186.8810 0017282 225.6423 134.3388 15.03814152464945
AO-91
1 43017U 17073E   26023.08052725  .00011208  00000-0  51378-3 0  9994
2 43017  97.4913 253.3563 0160074 108.3212 253.5505 15.09822838443475
S-Net D
1 43186U 18014G   26023.30829225  .00008291  00000-0  44749-3 0  9991
2 43186  97.5473 289.0782 0009163 149.0299 211.1475 15.14960376436813
S-Net B
1 43187U 18014H   26023.51519056  .00008645  00000-0  46667-3 0  9997
2 43187  97.5481 289.2653 0010018 144.6824 215.5074 15.14937901436842
S-Net A
1 43188U 18014J   26023.30782733  .00008363  00000-0  45119-3 0  9997
2 43188  97.5487 289.2428 0009817 146.1019 214.0842 15.14966476436810
S-Net C
1 43189U 18014K   26023.45226469  .00008506  00000-0  45915-3 0  9996
2 43189  97.5507 289.4382 0011488 139.8209 220.3874 15.14929582435385
Ten-Koh
1 43677U 18084G   26023.48284915  .00003676  00000-0  28453-3 0  9999
2 43677  98.0720 209.8028 0008213 241.6565 118.3831 15.02105385394435
PO-101
1 43678U 18084H   26023.62305767  .00002294  00000-0  19102-3 0  9991
2 43678  98.1096 213.8024 0007022 272.5655  87.4763 14.99724422394540
QO-100
1 43700U 18090A   26023.50891341  .00000000  00000-0  00000-0 0  9996
2 43700   0.0156  72.0587 0001933 268.2691 351.5438  1.00267824 26228
MinXSS-2
1 43758U 18099A   26023.45558598  .00039037  00000-0  10703-2 0  9991
2 43758  97.4725  96.4463 0009779  70.4231 289.8068 15.37138285391821
AO-95
1 43770U 18099N   26023.13453946  .00018252  00000-0  77529-3 0  9997
2 43770  97.4598  84.1282 0010328 133.7354 226.4740 15.23068875391115
SNUSat 2
1 43782U 18099AA  26023.10222606  .00014506  00000-0  69079-3 0  9993
2 43782  97.4285  78.8110 0012256  84.6927 275.5705 15.19176665390985
SnugLite
1 43784U 18099AC  26023.11089109  .00018710  00000-0  78617-3 0  9994
2 43784  97.4095  79.0212 0004378  85.0648 275.1089 15.23470098391202
ITASat 1
1 43786U 18099AE  26023.13736650  .00010368  00000-0  52885-3 0  9998
2 43786  97.4258  77.5920 0014308 133.7966 226.4453 15.16837319390907
EAGLET 1
1 43790U 18099AJ  26023.61457328  .00007460  00000-0  44198-3 0  9995
2 43790  97.4458  77.0740 0012708 121.6335 238.6138 15.11608766390482
ESEO
1 43792U 18099AL  26023.54144978  .00003430  00000-0  25414-3 0  9996
2 43792  97.4167  67.0121 0013181 105.2598 255.0086 15.03689536390062
JO-97
1 43803U 18099AX  26023.60704247  .00025152  00000-0  90783-3 0  9993
2 43803  97.4344  86.3183 0007427  69.4238 290.7798 15.28463124391508
Suomi 100
1 43804U 18099AY  26023.61401687  .00019912  00000-0  80776-3 0  9995
2 43804  97.4412  84.7683 0012026  73.7893 286.4667 15.24587512391363
ISAT
1 43879U 18111D   26023.54879637  .00068435  00000-0  14084-2 0  9990
2 43879  97.5908 310.0389 0009084  99.0693 261.1584 15.45666440388694
UWE-4
1 43880U 18111E   26023.20879583  .00037586  00000-0  10407-2 0  9993
2 43880  97.5865 305.9584 0011488 116.6658 243.5764 15.36821968388441
Sparrow
1 43881U 18111F   26023.59468764  .00078918  00000-0  14734-2 0  9992
2 43881  97.6103 314.1147 0007101 119.1798 241.0163 15.48470866388834
Prox-1
1 44339U 19036A   26023.61490393  .00021944  00000-0  23865-2 0  9996
2 44339  23.9969 357.1469 0007126 164.5174 195.5543 14.86504959351903
Taurus 1
1 44530U 19059C   26023.57781166  .00009556  00000-0  16016-2 0  9995
2 44530  98.6252 179.7683 0008463  47.3602 312.8314 14.69955957337380
TO-108
1 44881U 19093C   26023.64643108  .00001515  00000-0  17832-3 0  9998
2 44881  97.7697  99.3317 0013092 196.5570 163.5220 14.86223767329944
FloripaSat 1
1 44885U 19093G   26023.62568530  .00007490  00000-0  57630-3 0  9993
2 44885  97.7936 117.0186 0011501 189.0826 171.0191 15.01931586330935
RS-44
1 44909U 19096E   26023.60673228  .00000017  00000-0  16282-4 0  9999
2 44909  82.5187  75.7873 0218483 122.3035 239.9434 12.79746714283856
SALSAT
1 46495U 20068K   26023.47808542  .00012734  00000-0  47974-3 0  9996
2 46495  97.8824  18.0347 0012303  89.3079 270.9568 15.27169172293255
CSS (TIANHE-1)
1 48274U 21035A   26023.64598362  .00027212  00000-0  31752-3 0  9997
2 48274  41.4667 121.9615 0010232 345.7031  14.3517 15.60954774270571
CUTE
1 49263U 21088D   26023.20812164  .00117048  00000-0  12893-2 0  9996
2 49263  97.4288 112.9995 0004818 114.3189 245.8573 15.62730862239769
TeikyoSat 4
1 49396U 21102B   26023.51760483  .00003592  00000-0  23143-3 0  9999
2 49396  97.3850  58.5428 0013691  73.3958 286.8773 15.08871544230900
Z-Sat
1 49399U 21102E   26023.60619149  .00005372  00000-0  27478-3 0  9997
2 49399  97.3528  63.2898 0018138  36.7907 323.4567 15.16909748231511
KOSEN 1
1 49402U 21102H   26023.06844691  .00011565  00000-0  47281-3 0  9999
2 49402  97.3411  68.1067 0014501   7.0025 353.1413 15.24417350231894
HO-113
1 50466U 21131B   26023.65491189  .00001359  00000-0  43492-3 0  9998
2 50466  98.5014 116.8603 0004524 158.8446 201.2931 14.41184381214297
SNUGLITE 2
1 52899U 22065F   26023.35971283  .00002432  00000-0  47319-3 0  9997
2 52899  98.1955 168.6693 0008562 115.8183 244.3903 14.63982925189809
